Weather History for PMDY - January, 2014

Change the Weather History Date:

Wednesday, January 29, 2014

  Actual Average Record
Temperature  
Mean Temperature 64 °F -  
Max Temperature 72 °F - - ()
Min Temperature 57 °F - - ()
Growing Degree Days 14 (Base 50)    
Moisture  
Dew Point 62 °F    
Average Humidity 89    
Maximum Humidity 100    
Minimum Humidity 70    
Precipitation  
Precipitation 1.18 in - - ()
Sea Level Pressure  
Sea Level Pressure 30.21 in    
Wind  
Wind Speed 21 mph (ESE)    
Max Wind Speed 33 mph    
Max Gust Speed 43 mph    
Visibility 3 miles    
Events Fog , Rain    
T = Trace of Precipitation, MM = Missing Value Source: NWS Daily Summary

Daily Weather History Graph

Daily Weather History Graph

Search for Another Location

Airport or City:

Trip Planner

Search our weather history database for the weather conditions in past years. The results will help you decide how hot, cold, wet, or windy it might be!

Date:

Astronomy

Jan. 29, 2014 Rise Set
Actual Time 6:38 PM GMT 5:27 AM GMT
Civil Twilight 6:13 PM GMT 5:52 AM GMT
Nautical Twilight 5:45 PM GMT 6:20 AM GMT
Astronomical Twilight 5:17 PM GMT 6:48 AM GMT
Moon 5:27 PM GMT (1/29) 3:35 AM GMT (1/29)
Length of Visible Light 11h 38m
Length of Day
10h 49m
Waning Crescent, 3% of the Moon is Illuminated
Jan 29
Waning Crescent
Jan 30
New
Feb 6
First Quarter
Feb 14
Full
Feb 22
Last Quarter

Hourly Weather History & Observations

Time (GMT) Temp. Dew Point Humidity Pressure Visibility Wind Dir Wind Speed Gust Speed Precip Events Conditions
12:56 AM 72.0 °F 61.9 °F 70% 30.83 in 4.0 mi South 26.5 mph 34.5 mph N/A   Haze
1:56 AM 70.9 °F 61.0 °F 71% 30.84 in 3.0 mi SSW 24.2 mph 31.1 mph N/A   Haze
2:31 AM 71.6 °F 62.6 °F 73% 29.93 in 2.5 mi SSW 18.4 mph - 0.00 in Rain Light Rain
2:49 AM 71.6 °F 62.6 °F 73% 29.91 in 3.0 mi South 18.4 mph 25.3 mph 0.00 in Rain Light Rain
2:56 AM 71.6 °F 62.6 °F 73% 29.91 in 2.5 mi South 19.6 mph 24.2 mph N/A Rain Light Rain
3:44 AM 69.8 °F 64.4 °F 83% 29.89 in 3.0 mi South 21.9 mph 29.9 mph 0.00 in   Haze
3:56 AM 70.0 °F 63.9 °F 81% 30.79 in 2.5 mi South 21.9 mph 28.8 mph 0.00 in   Haze
4:11 AM 69.8 °F 64.4 °F 83% 29.89 in 3.0 mi SSW 23.0 mph 27.6 mph 0.00 in Rain Light Rain
4:18 AM 69.8 °F 64.4 °F 83% 29.89 in 1.8 mi South 21.9 mph - 0.00 in Rain Light Rain
4:29 AM 69.8 °F 64.4 °F 83% 29.89 in 1.8 mi South 23.0 mph 29.9 mph 0.00 in Rain Light Rain
4:35 AM 69.8 °F 64.4 °F 83% 29.88 in 1.0 mi South 25.3 mph 32.2 mph 0.01 in Rain Light Rain
4:46 AM 69.8 °F 64.4 °F 83% 29.89 in 1.5 mi SSW 21.9 mph 29.9 mph 0.02 in Rain Light Rain
4:56 AM 68.9 °F 63.9 °F 84% 30.80 in 1.0 mi South 20.7 mph - 0.03 in Rain Light Rain
5:27 AM 69.8 °F 64.4 °F 83% 29.92 in 0.8 mi SSW 13.8 mph 26.5 mph 0.06 in Rain Light Rain
5:36 AM 69.8 °F 64.4 °F 83% 29.93 in 1.2 mi SSW 16.1 mph - 0.06 in Rain Light Rain
5:56 AM 69.8 °F 66.2 °F 88% 29.91 in 0.8 mi South 19.6 mph - N/A Rain Light Rain
6:02 AM 68.0 °F 66.2 °F 94% 29.91 in 0.5 mi SSW 20.7 mph - 0.03 in Fog , Rain Rain
6:10 AM 68.0 °F 66.2 °F 94% 29.91 in 0.2 mi SSW 23.0 mph 39.1 mph 0.07 in Fog , Rain Rain
6:22 AM 68.0 °F 66.2 °F 94% 29.91 in - SSW 33.4 mph 42.6 mph 0.11 in Rain Light Rain
6:56 AM 66.9 °F 65.8 °F 96% 30.83 in - SSW 25.3 mph 38.0 mph 0.13 in Rain Light Rain
7:56 AM 68.0 °F 65.8 °F 93% 30.84 in - SSW 19.6 mph - 0.02 in Rain Light Rain
8:27 AM 68.0 °F 66.2 °F 94% 29.96 in - SW 23.0 mph 32.2 mph 0.03 in Rain Light Rain
8:38 AM 66.2 °F 66.2 °F 100% 29.95 in - SSW 27.6 mph 34.5 mph 0.09 in Rain Heavy Rain
8:56 AM 66.2 °F 66.2 °F 100% 29.95 in - SSW 24.2 mph 32.2 mph N/A Rain Light Rain
9:10 AM 66.2 °F 66.2 °F 100% 29.95 in - SSW 20.7 mph 29.9 mph 0.02 in Rain Light Rain
9:56 AM 68.0 °F 68.0 °F 100% 30.85 in - SSW 20.7 mph 31.1 mph 0.06 in Rain Light Rain
10:56 AM 68.9 °F 68.9 °F 100% 30.84 in - SSW 16.1 mph 23.0 mph 0.01 in Rain Light Rain
11:56 AM 69.8 °F 69.8 °F 100% 29.92 in - SSW 21.9 mph 27.6 mph N/A   Overcast
12:48 PM 69.8 °F 69.8 °F 100% 29.91 in - SSW 15.0 mph - 0.06 in Rain Light Rain
12:56 PM 68.9 °F 68.9 °F 100% 30.82 in - South 15.0 mph - 0.07 in Rain Light Rain
1:22 PM 62.6 °F 62.6 °F 100% 29.94 in - NNE 9.2 mph 19.6 mph 0.09 in Rain Heavy Rain
1:36 PM 60.8 °F 60.8 °F 100% 29.95 in - NNE 16.1 mph 26.5 mph 0.37 in Rain Heavy Rain
1:56 PM 61.0 °F 61.0 °F 100% 30.85 in - NE 17.3 mph 25.3 mph 0.56 in Rain Heavy Rain
2:56 PM 60.8 °F 60.8 °F 100% 29.94 in - NE 19.6 mph 27.6 mph N/A Rain Rain
3:03 PM 60.8 °F 60.8 °F 100% 29.94 in - NE 15.0 mph 31.1 mph 0.00 in Rain Light Rain
3:56 PM 59.9 °F 59.9 °F 100% 30.86 in - NNE 21.9 mph 28.8 mph 0.01 in Rain Light Rain
4:56 PM 59.0 °F 59.0 °F 100% 30.89 in - NNE 20.7 mph 31.1 mph 0.00 in Rain Light Rain
5:38 PM 57.2 °F 57.2 °F 100% 29.97 in - NE 23.0 mph 35.7 mph 0.08 in Rain Rain
5:56 PM 59.0 °F 59.0 °F 100% 29.97 in - NE 23.0 mph 32.2 mph N/A Rain Light Rain
6:56 PM 59.0 °F 57.9 °F 96% 30.92 in - NE 21.9 mph 32.2 mph 0.00 in Rain Light Rain
7:31 PM 60.8 °F 57.2 °F 88% 30.01 in 1.8 mi NE 25.3 mph 34.5 mph 0.03 in Rain Rain
7:39 PM 59.0 °F 55.4 °F 88% 30.02 in 1.2 mi NE 24.2 mph 34.5 mph 0.04 in Rain Rain
7:47 PM 59.0 °F 55.4 °F 88% 30.02 in 2.0 mi NE 23.0 mph 32.2 mph 0.05 in Rain Light Rain
7:56 PM 59.0 °F 56.8 °F 93% 30.94 in 4.0 mi NE 21.9 mph 31.1 mph 0.05 in Rain Light Rain
8:56 PM 60.8 °F 57.2 °F 88% 30.05 in 7.0 mi NE 19.6 mph 26.5 mph N/A   Overcast
9:56 PM 61.0 °F 55.9 °F 83% 30.98 in 8.0 mi ENE 21.9 mph - 0.00 in   Overcast
10:03 PM 62.6 °F 55.4 °F 77% 30.07 in 9.0 mi ENE 19.6 mph 26.5 mph 0.00 in Rain Light Rain
10:11 PM 60.8 °F 55.4 °F 82% 30.07 in 8.0 mi NE 18.4 mph - 0.00 in Rain Light Rain
10:25 PM 60.8 °F 55.4 °F 82% 30.06 in 5.0 mi NE 18.4 mph 26.5 mph 0.00 in Rain Light Rain
10:33 PM 62.6 °F 55.4 °F 77% 30.05 in 6.0 mi NE 20.7 mph 25.3 mph 0.00 in Rain Light Rain
10:56 PM 61.9 °F 56.8 °F 84% 30.97 in 6.0 mi NE 16.1 mph 29.9 mph 0.00 in   Haze
11:06 PM 60.8 °F 57.2 °F 88% 30.05 in 5.0 mi NE 18.4 mph 25.3 mph 0.00 in Rain Light Rain
11:10 PM 60.8 °F 57.2 °F 88% 30.05 in 1.8 mi NE 21.9 mph 26.5 mph 0.00 in Rain Light Rain
11:13 PM 60.8 °F 57.2 °F 88% 30.05 in 1.0 mi NE 23.0 mph 28.8 mph 0.01 in Rain Light Rain
11:18 PM 60.8 °F 57.2 °F 88% 30.04 in 1.0 mi NE 24.2 mph 31.1 mph 0.01 in Rain Light Rain
11:21 PM 60.8 °F 57.2 °F 88% 30.04 in 1.2 mi NE 20.7 mph 31.1 mph 0.01 in Rain Light Rain
11:24 PM 60.8 °F 57.2 °F 88% 30.04 in 2.0 mi NE 18.4 mph 31.1 mph 0.01 in Rain Light Rain
11:33 PM 60.8 °F 57.2 °F 88% 30.04 in 7.0 mi ENE 18.4 mph 25.3 mph 0.01 in Rain Light Rain
11:56 PM 60.8 °F 57.2 °F 88% 30.05 in 1.5 mi ENE 20.7 mph 29.9 mph N/A Rain Light Rain
11:59 PM 60.8 °F 57.2 °F 88% 30.05 in 1.0 mi ENE 17.3 mph 29.9 mph 0.00 in Rain Light Rain